{"data":{"norad_id":62791,"intl_designator":"2025-016G","name":"QIANFAN-61","alt_names":[],"object_type":"PAYLOAD","status":"ACTIVE","operator":null,"country":"PRC","launch_date":"2025-01-23","launch_site_code":"TAISC","launch_vehicle":null,"mission":null,"orbit_class":"UNKNOWN","rcs_meters":null,"size_class":null,"mass_kg":null,"dimensions":null,"purposes":[],"wikipedia_slug":null,"has_3d_model":false,"image_url":null,"decayed_at":null,"tle_current":{"epoch":"2026-09-22T22:02:09.112128Z","epoch_age_seconds":109240,"freshness":"FRESH","line1":"1 62791U 25016G   26265.91816102  .00000052  00000+0  61549-4 0  9993","line2":"2 62791  88.9719  73.8658 0013172 238.2068 121.7800 13.51027820 85617","mean_motion":13.5102782,"eccentricity":0.0013172,"inclination_deg":88.9719,"raan_deg":73.8658,"arg_perigee_deg":238.2068,"mean_anomaly_deg":121.78,"bstar":6.1549e-5,"rev_number":8561,"period_min":106.58551797993,"perigee_km":1058.670674616,"apogee_km":1078.2880407487,"semimajor_km":7446.6163576823,"source":"CELESTRAK","updated_at":"2026-09-23T09:00:21.634706Z"}}}